User: anonymous   Login
Location: Sandbach
(53.1410°N, 2.3660°W)
Time: 16:31:12
(UTC+01:00)
Language:

Tiangong - Orbit

View from above orbital plane
View from above orbital plane
View from above satellite
View from above satellite

Ground track
Ground track

The orbit data is extracted from the following two-line orbital elements,

1 48274U 21035A   21215.10950780  .00006752  00000-0  76382-4 0  9997
2 48274  41.4710 356.8093 0009261 289.7453 235.1060 15.62820736 15030
Epoch (UTC): 03 August 2021 02:37:41
Eccentricity: 0.0009261
inclination: 41.4710°
perigee height: 373 km
apogee height: 386 km
right ascension of ascending node: 356.8093°
argument of perigee: 289.7453°
revolutions per day: 15.62820736
mean anomaly at epoch: 235.1060°
orbit number at epoch: 1503

The dashed part of the orbit path shows where the satellite is in the earth's shadow,  

DLR